Regional Weather Roundup
Issued by NWS

Home | Current Version | Previous Version | Text Only | Print | Product List | Glossary Off
Versions: 1 2 3 4 5 6 7 8 9 10 11 12 13 14 15 16 17 18 19 20 21 22 23 24 25 26 27 28 29 30 31 32 33 34 35 36 37 38 39 40 41 42 43 44 45 46 47 48 49 50

000
ASUS43 KLSX 170007
RWRMO

WEATHER SUMMARY FOR MISSOURI
NATIONAL WEATHER SERVICE SPRINGFIELD MO
600 PM CST SAT DEC 16 2017

NOTE: "FAIR" INDICATES FEW OR NO CLOUDS BELOW 12,000 FEET WITH NO
       SIGNIFICANT WEATHER AND/OR OBSTRUCTIONS TO VISIBILITY.
       CURRENT SKY AND/OR WEATHER CONDITIONS ARE NOT AVAILABLE FOR
       CHILLICOTHE AND FARMINGTON.

MOZ001>031-035>038-043-044-053-054-170100-
...NORTHERN AND WESTERN MISSOURI...

CITY           SKY/WX    TMP DP  RH WIND       PRES   REMARKS
KANSAS CTY INT PTCLDY    41  25  53 S10       29.93R
6HR MIN TEMP:  41; 6HR MAX TEMP:  59;

KANSAS C DTWN  CLEAR     54  27  35 S9        29.93R
6HR MIN TEMP:  53; 6HR MAX TEMP:  62;

LEE`S SUMMIT   CLOUDY    52  27  38 S14       29.95R
6HR MIN TEMP:  51; 6HR MAX TEMP:  60;

ST JOSEPH      CLEAR     41  27  57 CALM      29.91R
6HR MIN TEMP:  39; 6HR MAX TEMP:  57;

CHILLICOTHE      N/A     40  27  59 CALM      29.94R
6HR MIN TEMP:  40; 6HR MAX TEMP:  58;

KIRKSVILLE     CLEAR     43  30  60 CALM      29.94R
6HR MIN TEMP:  42; 6HR MAX TEMP:  55;


$$
MOZ066>068-077>081-088>096-101>105-170100-
...SOUTHWEST MISSOURI...

CITY           SKY/WX    TMP DP  RH WIND       PRES   REMARKS
SPRINGFIELD    CLOUDY    50  23  34 S12       30.01R
6HR MIN TEMP:  48; 6HR MAX TEMP:  59;

JOPLIN         CLOUDY    51  26  37 S9        29.99S
6HR MIN TEMP:  50; 6HR MAX TEMP:  59;

BRANSON        MOCLDY    50  21  32 SW6       30.05R

$$
MOZ032>034-039>042-045>050-055>058-069>072-170100-
...CENTRAL MISSOURI...

CITY           SKY/WX    TMP DP  RH WIND       PRES   REMARKS
COLUMBIA       CLOUDY    50  25  37 SW14      29.98R
6HR MIN TEMP:  48; 6HR MAX TEMP:  62;

JEFFERSON CITY CLOUDY    56  24  29 SW7       30.00R
6HR MIN TEMP:  56; 6HR MAX TEMP:  62;

ROLLA          CLOUDY    50  26  39 S10       30.00R
6HR MIN TEMP:  46; 6HR MAX TEMP:  61;

SEDALIA        CLOUDY    52  27  38 S13       29.99R
6HR MIN TEMP:  52; 6HR MAX TEMP:  62;

WHITEMAN AFB   CLOUDY    51  25  36 SW14      29.93R
WARRENSBURG    CLEAR     50  25  37 S7        29.97R
OSAGE BEACH    CLOUDY    50  25  37 SW8       30.01R

$$
MOZ051-052-059>065-170100-
...EAST CENTRAL MISSOURI...

CITY           SKY/WX    TMP DP  RH WIND       PRES   REMARKS
ST LOUIS INTL  CLOUDY    55  25  31 S3        30.00R
6HR MIN TEMP:  54; 6HR MAX TEMP:  62;

SPIRIT OF STL  CLOUDY    54  26  34 S6        29.99R
6HR MIN TEMP:  54; 6HR MAX TEMP:  62;

ST CHARLES     CLOUDY    51  25  36 S10       29.99R
6HR MIN TEMP:  50; 6HR MAX TEMP:  62;


$$
MOZ072>076-082>087-097>100-106>115-170100-
...SOUTH CENTRAL AND SOUTHEAST MISSOURI...

CITY           SKY/WX    TMP DP  RH WIND       PRES   REMARKS
CAPE GIRARDEAU CLOUDY    46  30  53 S10       30.10S
6HR MIN TEMP:  45; 6HR MAX TEMP:  53;

FARMINGTON     CLOUDY    47  29  49 S9        30.04R
6HR MIN TEMP:  47; 6HR MAX TEMP:  57;

POPLAR BLUFF   CLOUDY    45  32  60 S8        30.11R
6HR MIN TEMP:  45; 6HR MAX TEMP:  54;

WEST PLAINS    PTCLDY    48  26  42 S9        30.07R
6HR MIN TEMP:  48; 6HR MAX TEMP:  57;


$$


USA.gov is the U.S. government's official web portal to all federal, state and local government web resources and services.